Orbital Elements
Epoch 2008 Aug. 2.0 TT = JDT 2454680.5
T 2008 Aug. 7.05024 TT Rudenko
q 3.3292061 (2000.0) P Q
z -0.0004453 Peri. 0.92767 +0.65361325 +0.69915082
+/-0.0000008 Node 50.04333 +0.69191936 -0.70716122
e 1.0014826 Incl. 157.78685 +0.30665505 +0.10540934
From 767 observations 2007 Oct. 19-2009 Nov. 18, mean residual 0".6.
|